Theta_e
301 295 293 297 303 306 304 303 302 304 302 298 300 302 304 309 308 304 306 307 309 312 317 322 325 327 328 330 331 333 333 334 334 333 331 331 327 329 331 334 333 333 332 330
297 294 301 300 301 300 303 301 301 303 299 297 299 299 304 306 307 309 308 306 307 309 313 317 323 326 327 328 330 332 333 334 334 334 334 333 330 332 332 333 334 334 333 331
296 301 307 301 299 298 300 297 299 298 296 297 296 296 300 303 304 307 308 309 307 308 309 314 319 323 327 327 329 331 333 334 335 335 334 334 333 332 332 332 333 333 333 332
299 304 302 301 299 300 296 300 302 297 295 294 296 292 301 303 302 301 303 305 306 306 306 309 316 321 325 327 330 331 332 333 334 336 333 331 329 328 331 332 333 333 333 332
297 299 298 298 300 302 299 302 299 298 293 293 294 289 297 302 298 300 302 303 306 306 306 305 308 315 323 327 329 331 331 332 334 335 334 332 331 332 333 332 332 333 334 333
296 301 299 300 303 303 298 296 294 293 293 287 293 292 293 296 299 301 303 304 306 308 307 308 309 310 313 321 327 330 330 329 332 334 334 333 332 331 331 331 330 332 333 332
291 293 297 299 297 300 297 293 286 284 284 285 290 290 294 299 302 302 302 304 305 308 309 309 309 307 309 311 314 321 327 327 330 331 331 332 333 332 331 331 331 330 330 330
288 284 291 296 297 294 293 295 288 281 283 287 287 285 292 299 302 303 303 303 303 302 305 306 308 308 307 308 309 310 312 319 325 328 330 331 332 331 331 331 331 330 330 330
289 289 294 295 297 297 292 291 299 286 281 284 288 291 296 298 297 298 299 300 301 302 303 303 305 306 305 305 305 307 307 308 313 320 325 326 328 329 329 330 331 330 330 329
296 286 291 292 294 296 295 298 288 288 282 280 288 288 290 294 296 298 299 299 301 303 303 304 303 305 305 306 306 306 306 306 310 315 320 322 324 326 328 328 327 327 328 327
298 291 286 289 288 289 289 291 292 292 289 284 283 288 297 297 297 297 298 299 300 300 302 303 303 305 306 307 308 307 307 306 310 316 319 321 322 323 324 323 324 324 325 326
297 292 283 285 292 293 294 292 292 287 284 286 283 287 295 297 298 296 298 298 298 299 301 301 303 305 306 307 308 309 309 308 310 312 316 317 318 317 317 318 322 323 324 323
294 290 283 284 289 290 289 292 294 293 289 285 285 289 293 295 295 296 296 299 298 298 299 301 303 304 305 307 309 309 310 309 310 310 310 312 313 313 312 313 317 320 320 317
296 290 289 283 286 289 286 290 292 292 287 288 287 291 293 294 295 297 297 299 299 298 299 300 301 303 305 306 307 309 309 311 310 310 309 309 309 309 310 309 309 314 316 315
294 287 289 291 291 290 288 288 288 288 291 287 289 289 294 297 296 297 298 299 298 297 297 299 301 303 304 305 305 308 309 310 310 310 310 309 311 311 311 311 311 310 309 308
294 287 288 284 288 289 286 288 289 289 290 291 291 291 298 297 299 299 298 297 297 299 299 299 299 301 303 303 305 306 308 309 309 309 309 309 309 309 308 307 303 299 298 298
290 288 286 284 287 287 283 287 288 290 292 291 287 292 297 297 295 297 298 297 296 298 300 301 300 299 301 303 304 304 306 308 307 307 307 307 307 301 300 298 297 295 295 294
288 288 287 284 285 277 288 295 293 291 292 293 293 295 297 298 299 299 300 300 299 298 297 299 301 302 302 302 303 304 305 305 304 303 301 300 300 298 296 294 293 291 291 290
293 289 285 282 282 287 290 292 292 290 290 295 294 295 297 297 296 296 299 300 300 301 301 300 303 303 303 302 302 302 300 300 299 299 298 298 298 293 291 290 290 288 289 288
292 293 288 284 281 279 288 293 295 296 285 296 296 296 296 295 290 294 300 300 300 301 301 299 300 300 299 300 301 297 297 297 298 298 296 297 291 291 291 290 289 286 287 287
285 287 284 285 283 287 290 291 295 283 286 294 295 296 296 293 296 299 298 297 295 294 295 295 296 296 296 294 295 294 295 295 296 296 294 291 291 291 292 289 287 287 286 286
285 284 284 286 283 280 291 291 288 293 296 293 292 295 295 297 297 295 295 294 294 293 292 291 292 290 290 291 291 291 292 293 294 292 291 290 289 289 289 288 287 286 287 286
285 289 287 287 288 292 293 293 295 295 296 293 295 293 295 294 293 293 293 293 291 289 288 288 289 288 287 287 287 288 290 289 288 288 288 288 287 287 288 287 286 286 286 287
290 293 290 289 292 293 293 293 293 295 295 295 296 295 293 292 291 289 289 288 287 285 285 286 287 285 283 284 284 284 285 285 285 286 286 286 287 286 286 287 287 287 286 286
291 291 288 289 288 291 293 295 296 292 292 291 290 290 292 291 288 288 286 285 284 283 283 283 283 282 280 282 280 280 282 284 285 285 284 285 285 286 285 285 286 286 286 288
287 287 288 287 290 293 293 296 294 291 290 291 289 287 286 289 287 285 283 282 282 280 281 280 279 279 279 279 277 277 279 283 285 283 283 284 284 283 283 284 282 284 286 287
Wind_Speed
5 6 12 19 14 14 14 14 15 14 6 7 15 19 18 17 16 14 13 14 14 16 14 16 16 16 16 17 18 19 18 18 13 11 10 9 8 8 8 8 12 11 10 11
8 10 12 14 13 9 12 14 13 7 7 7 12 19 17 16 18 17 18 16 16 16 14 15 17 17 18 18 17 18 18 19 16 11 10 9 10 9 8 8 10 12 11 11
15 12 19 18 19 14 15 16 14 10 4 10 10 19 21 19 21 19 19 19 17 17 13 12 15 17 17 19 20 19 19 18 17 15 10 9 8 9 8 9 8 9 12 11
21 15 21 22 23 19 19 12 10 8 5 7 4 10 12 4 12 17 19 19 18 17 15 16 17 18 19 19 17 18 18 18 16 17 14 16 12 11 10 9 8 9 12 12
15 19 22 22 24 22 16 14 13 9 9 11 13 7 6 11 10 16 18 21 21 20 17 15 15 17 18 15 14 15 16 16 15 16 18 13 14 10 8 8 11 10 9 11
1 5 14 17 18 20 14 11 7 4 7 11 17 15 11 14 17 15 15 19 19 20 18 16 14 13 14 13 12 13 16 16 16 16 17 17 15 13 10 10 8 7 8 8
7 14 10 7 20 16 14 18 5 5 8 10 2 9 14 6 12 15 11 8 10 17 18 16 14 10 11 11 10 11 15 17 17 17 16 17 16 15 14 12 9 10 8 7
17 12 19 15 24 13 20 18 7 9 8 5 3 11 6 16 17 16 12 7 6 4 6 10 9 10 12 13 12 12 13 14 15 16 17 15 16 10 10 11 8 8 8 9
19 13 23 23 10 18 22 20 8 4 2 2 8 10 9 13 14 9 9 10 13 12 12 10 9 8 9 9 10 11 11 11 11 12 12 13 12 13 11 11 10 8 9 6
12 9 13 8 5 12 18 15 9 6 6 6 6 8 9 7 15 11 8 9 9 8 11 10 10 8 6 7 8 10 11 12 12 11 10 9 10 10 9 8 9 9 8 7
10 7 11 8 15 20 11 17 10 8 6 3 2 4 3 9 6 6 3 5 6 7 10 9 8 7 6 6 7 8 9 10 9 9 9 9 9 8 9 8 8 7 6 8
12 6 9 25 4 4 16 10 13 8 9 3 2 6 3 3 8 3 4 2 2 3 4 5 6 7 7 7 7 7 7 8 9 9 9 9 10 8 6 5 5 6 8 7
12 5 8 10 9 5 21 20 23 11 3 8 7 6 2 4 4 4 6 2 2 2 4 5 7 6 6 7 7 8 8 8 7 8 9 9 10 10 9 8 9 8 7 7
10 4 6 13 12 10 15 21 17 18 7 6 18 7 8 3 5 5 5 4 1 3 4 6 6 6 7 7 8 8 7 8 8 8 9 9 9 10 9 8 8 8 5 7
7 5 2 2 5 10 18 18 16 21 25 16 30 18 18 10 4 1 2 2 1 2 5 6 6 7 8 8 9 8 8 8 9 9 9 9 7 6 6 6 6 7 9 8
4 6 4 3 0 6 13 17 18 24 31 24 26 21 6 2 7 13 8 5 6 5 5 5 7 8 8 8 8 7 8 8 8 8 8 7 7 6 5 6 7 5 5 5
20 9 7 8 3 6 1 27 27 23 25 29 23 21 8 13 11 9 11 8 10 6 5 5 8 9 7 7 6 8 7 6 7 7 7 7 8 6 6 6 6 6 6 5
20 17 12 8 5 6 14 16 20 24 24 29 29 16 9 10 11 12 11 12 10 5 9 10 8 7 7 7 9 8 8 9 8 7 6 5 7 7 6 6 6 5 4 4
10 6 4 7 12 6 15 17 22 17 29 23 26 21 18 8 1 11 6 8 11 13 12 10 5 4 5 9 9 8 7 6 6 9 8 6 8 6 5 5 6 3 5 4
15 17 10 7 13 16 4 15 5 13 31 17 20 21 19 9 14 14 16 17 16 12 3 3 2 1 3 3 6 9 8 8 12 9 7 6 6 7 7 5 5 3 3 5
9 8 21 13 12 9 3 13 17 14 3 4 11 19 15 16 21 3 5 6 5 5 7 6 2 2 2 3 1 6 7 12 6 7 7 7 7 8 8 8 3 4 4 5
16 15 12 9 14 23 6 17 25 11 8 5 2 3 7 13 7 3 4 5 6 5 5 6 4 4 5 5 3 4 5 2 3 5 6 8 7 5 7 10 7 7 6 6
11 14 10 16 14 1 6 6 4 4 4 3 4 4 5 4 4 5 4 5 7 6 4 4 4 4 6 8 7 4 5 4 2 4 5 5 5 6 7 8 7 6 6 5
7 11 5 4 11 6 7 2 4 1 3 3 3 4 3 4 6 6 6 6 6 6 6 5 5 7 7 7 7 7 7 4 3 3 3 5 5 5 4 4 5 6 6 5
3 8 7 3 3 4 5 6 5 4 4 5 6 4 4 9 8 6 7 8 8 7 6 7 7 7 7 7 8 9 8 5 4 4 3 4 4 4 5 3 4 4 3 6
3 1 10 5 6 6 2 5 6 7 6 7 8 5 5 7 9 9 9 7 8 8 6 7 7 8 8 8 9 10 9 8 5 5 3 3 3 3 3 4 3 6 2 4
Wind_Direction
220 160 193 176 200 220 196 204 208 215 148 231 239 251 250 247 230 241 243 247 230 231 219 198 205 200 200 201 204 204 201 201 199 192 197 201 199 208 217 222 222 209 209 205
192 225 181 176 188 206 226 206 221 218 158 218 258 261 258 254 252 243 242 229 231 233 226 205 198 199 203 202 203 206 205 204 201 195 198 204 202 216 210 212 212 219 206 202
213 205 192 171 181 193 206 208 212 233 159 238 273 273 257 245 242 243 236 241 229 224 221 204 204 198 198 206 203 206 207 207 205 203 199 201 206 215 204 212 215 212 214 203
220 234 189 187 193 193 204 217 224 217 242 247 187 280 268 239 227 226 231 229 225 220 218 207 200 205 205 211 207 207 208 207 206 198 203 203 206 209 212 206 213 207 212 205
193 184 182 194 199 191 219 182 205 215 245 278 236 258 269 248 240 244 229 228 224 220 215 210 207 205 209 209 211 215 213 213 207 205 206 210 213 217 217 213 209 209 211 211
137 219 188 197 198 186 127 150 149 200 252 253 236 237 249 245 234 241 238 229 223 221 221 221 209 204 206 208 208 207 210 214 211 211 211 216 214 212 215 214 205 200 207 200
167 195 172 222 166 172 162 161 152 200 213 241 97 236 246 251 239 244 252 260 236 213 221 223 206 189 201 198 198 211 210 215 210 207 215 218 222 218 220 211 206 197 203 197
178 190 187 192 181 175 187 182 174 194 216 237 138 237 247 244 245 246 249 246 276 279 248 245 238 204 202 203 203 201 214 222 214 204 210 215 218 222 220 217 209 208 207 201
187 198 175 175 196 156 192 207 213 95 134 285 209 246 274 261 240 234 238 239 237 229 219 222 220 200 206 201 208 213 206 218 218 215 207 211 214 212 215 211 210 203 212 201
184 153 178 166 149 200 196 159 188 211 191 228 241 258 255 221 236 238 246 242 251 238 223 206 191 194 199 201 200 200 206 206 204 205 205 209 212 212 211 210 207 212 214 186
197 117 169 148 206 188 173 189 205 185 217 253 275 231 206 245 155 179 294 291 271 281 241 220 189 188 193 193 194 195 194 196 198 199 195 198 197 209 207 210 213 198 204 194
191 113 166 199 203 287 204 195 197 185 193 192 58 271 53 172 141 78 324 263 242 224 207 197 187 182 184 192 189 191 182 179 188 188 189 193 197 189 184 187 186 181 195 191
158 148 116 173 223 199 202 197 202 215 78 202 190 220 303 122 178 241 281 305 195 175 159 165 173 190 195 196 196 195 183 173 167 168 181 184 193 192 198 198 197 194 190 172
129 156 171 194 212 138 193 199 205 210 203 185 225 211 160 165 237 256 258 242 219 185 175 181 194 203 208 204 200 199 191 179 171 177 179 185 188 194 198 198 198 199 183 176
156 117 77 214 157 161 185 192 189 205 226 210 241 218 242 251 197 308 333 42 18 212 206 202 209 221 215 206 203 198 191 186 184 182 185 189 187 190 182 177 181 184 195 194
169 181 113 13 157 145 177 191 190 205 222 231 245 254 243 79 278 267 232 202 230 221 224 199 216 223 219 208 208 199 204 191 187 192 195 187 180 184 175 167 175 165 149 143
182 151 178 220 135 110 245 202 203 214 216 223 230 236 211 231 226 242 256 237 244 227 225 224 219 224 216 197 197 205 203 187 191 203 198 188 185 173 179 159 156 158 159 148
160 177 175 172 144 209 251 200 213 215 220 226 240 235 234 242 234 227 236 256 262 221 234 245 244 213 176 173 193 200 192 187 191 210 200 179 180 185 172 160 162 144 126 139
176 152 102 159 198 256 244 213 209 208 240 230 235 236 241 242 328 249 236 249 255 249 237 234 217 195 178 183 185 183 180 181 179 211 203 181 191 176 157 166 158 131 130 127
209 197 184 178 196 217 270 188 137 196 260 225 244 248 244 197 236 238 221 228 245 259 244 175 200 211 207 195 164 167 186 182 214 211 186 182 157 163 166 160 164 128 128 140
172 179 198 201 218 258 164 143 136 174 273 134 208 235 221 211 228 244 29 43 43 25 27 12 11 293 358 52 281 239 171 201 193 168 151 155 176 178 164 147 128 134 119 118
175 173 194 194 219 251 142 161 180 225 247 135 125 167 202 219 238 41 74 84 67 58 30 13 27 42 23 3 352 263 247 54 121 136 161 165 170 169 157 149 141 144 146 146
199 198 177 192 214 132 196 179 236 36 115 144 141 144 148 169 206 163 125 65 56 38 38 10 35 64 24 5 3 325 338 336 124 167 155 147 141 148 150 147 146 145 149 157
217 182 191 100 209 178 175 210 291 353 96 116 75 101 140 144 110 108 97 74 56 34 42 15 55 55 35 14 14 4 348 350 101 125 98 111 138 128 125 123 144 149 159 158
152 150 159 286 61 13 283 226 223 109 84 105 63 40 86 107 84 79 83 77 70 50 24 41 47 56 50 33 28 11 351 346 66 85 90 97 109 135 131 111 149 159 178 183
343 200 198 222 63 266 88 286 142 145 160 150 134 111 56 106 108 108 95 84 81 77 46 44 47 57 39 44 34 11 3 3 33 57 49 62 78 82 95 116 96 53 61 197